Location: São Paulo
(23.5507°S, 46.6334°W)
Time: 07:12:45
(UTC-03:00)

Transit 2A - Pass Details

Date: 23 February 2026
Orbit: 590 x 954 km, 66.7° (Epoch: 10 March)

Event Time Altitude Azimuth Distance (km) Brightness Sun altitude
Rises 22:59:02 0° 319° (NW) 3,013 - -51.5°
Reaches altitude 10° 23:01:34 10° 310° (NW) 2,054 - -51.8°
Maximum altitude 23:05:44 34° 245° (WSW) 1,038 - -52.3°
Drops below altitude 10° 23:09:43 10° 179° (S) 1,958 - -52.8°
Sets 23:12:06 0° 169° (S) 2,851 - -53.0°
